| time (UTC) | temp C | wind direction | speed KPH | gust KPH | rain 1hr cm | rain 24hr cm | rain mn cm | humidity % | barometer mb |
| 20260507170531 | 19 | 240 | 1.6 | 6.4 | 0.00 | 0.00 | 0.00 | 53 | 1003.3 |
| 20260507165539 | 19 | 220 | 4.8 | 11.3 | 0.00 | 0.00 | 0.00 | 52 | 1003.2 |
| 20260507164547 | 20 | 190 | 6.4 | 9.7 | 0.00 | 0.00 | 0.00 | 52 | 1003.2 |
| 20260507163554 | 20 | 185 | 8.0 | 14.5 | 0.00 | 0.00 | 0.00 | 51 | 1003.1 |
| 20260507162602 | 20 | 212 | 6.4 | 19.3 | 0.00 | 0.00 | 0.00 | 51 | 1003.1 |
| 20260507161610 | 20 | 209 | 4.8 | 9.7 | 0.00 | 0.00 | 0.00 | 51 | 1003.0 |
| 20260507160619 | 21 | 270 | 8.0 | 11.3 | 0.00 | 0.00 | 0.00 | 50 | 1002.9 |
| 20260507155521 | 21 | 209 | 9.7 | 14.5 | 0.00 | 0.00 | 0.00 | 47 | 1002.8 |
| 20260507154529 | 22 | 173 | 9.7 | 14.5 | 0.00 | 0.00 | 0.00 | 48 | 1002.8 |
| 20260507153537 | 22 | 253 | 8.0 | 14.5 | 0.00 | 0.00 | 0.00 | 44 | 1002.8 |
| 20260507152544 | 22 | 188 | 9.7 | 14.5 | 0.00 | 0.00 | 0.00 | 45 | 1002.7 |
| 20260507151552 | 22 | 219 | 11.3 | 19.3 | 0.00 | 0.00 | 0.00 | 45 | 1002.9 |
| 20260507150600 | 22 | 200 | 8.0 | 14.5 | 0.00 | 0.00 | 0.00 | 46 | 1002.8 |
| 20260507145608 | 22 | 221 | 11.3 | 19.3 | 0.00 | 0.00 | 0.00 | 45 | 1002.9 |
| 20260507144616 | 22 | 225 | 8.0 | 12.9 | 0.00 | 0.00 | 0.00 | 45 | 1002.9 |
| 20260507143518 | 22 | 241 | 11.3 | 22.5 | 0.00 | 0.00 | 0.00 | 46 | 1003.0 |
| 20260507142526 | 22 | 165 | 11.3 | 19.3 | 0.00 | 0.00 | 0.00 | 51 | 1003.1 |
| 20260507141533 | 21 | 223 | 11.3 | 19.3 | 0.00 | 0.00 | 0.00 | 52 | 1003.2 |
| 20260507140541 | 21 | 315 | 4.8 | 6.4 | 0.00 | 0.00 | 0.00 | 54 | 1003.1 |
| 20260507135550 | 21 | 173 | 9.7 | 19.3 | 0.00 | 0.00 | 0.00 | 52 | 1003.2 |
| 20260507134557 | 21 | 227 | 6.4 | 9.7 | 0.00 | 0.00 | 0.00 | 52 | 1003.3 |
| 20260507133605 | 21 | 176 | 6.4 | 9.7 | 0.00 | 0.00 | 0.00 | 52 | 1003.2 |
| 20260507132613 | 21 | 238 | 8.0 | 16.1 | 0.00 | 0.00 | 0.00 | 51 | 1003.2 |
| 20260507131515 | 21 | 161 | 9.7 | 16.1 | 0.00 | 0.00 | 0.00 | 51 | 1003.2 |
| 20260507130523 | 21 | 228 | 9.7 | 14.5 | 0.00 | 0.00 | 0.00 | 50 | 1003.4 |
| 20260507125531 | 21 | 191 | 4.8 | 9.7 | 0.00 | 0.00 | 0.00 | 50 | 1003.6 |
| 20260507124538 | 22 | 189 | 11.3 | 16.1 | 0.00 | 0.00 | 0.00 | 45 | 1003.7 |
| 20260507123547 | 22 | 178 | 8.0 | 12.9 | 0.00 | 0.00 | 0.00 | 45 | 1003.7 |
| 20260507122554 | 22 | 193 | 8.0 | 12.9 | 0.00 | 0.00 | 0.00 | 47 | 1003.7 |
| 20260507121602 | 22 | 224 | 6.4 | 14.5 | 0.00 | 0.00 | 0.00 | 45 | 1003.8 |
| 20260507120610 | 22 | 315 | 1.6 | 3.2 | 0.00 | 0.00 | 0.00 | 40 | 1003.9 |
| 20260507115618 | 23 | 186 | 6.4 | 9.7 | 0.00 | 0.00 | 0.00 | 38 | 1003.8 |
| 20260507114520 | 23 | 240 | 8.0 | 14.5 | 0.00 | 0.00 | 0.00 | 35 | 1003.9 |
| 20260507113528 | 23 | 292 | 3.2 | 8.0 | 0.00 | 0.00 | 0.00 | 38 | 1004.0 |
| 20260507112535 | 22 | 257 | 8.0 | 14.5 | 0.00 | 0.00 | 0.00 | 41 | 1004.1 |
| 20260507111543 | 22 | 194 | 4.8 | 9.7 | 0.00 | 0.00 | 0.00 | 43 | 1004.2 |
| 20260507110552 | 22 | 237 | 4.8 | 11.3 | 0.00 | 0.00 | 0.00 | 43 | 1004.2 |
| 20260507105559 | 22 | 257 | 3.2 | 9.7 | 0.00 | 0.00 | 0.00 | 43 | 1004.4 |
| 20260507104607 | 21 | 199 | 3.2 | 8.0 | 0.00 | 0.00 | 0.00 | 50 | 1004.4 |
| 20260507103615 | 21 | 248 | 4.8 | 9.7 | 0.00 | 0.00 | 0.00 | 50 | 1004.5 |
| 20260507102517 | 21 | 188 | 9.7 | 14.5 | 0.00 | 0.00 | 0.00 | 52 | 1004.6 |
| 20260507101525 | 20 | 232 | 8.0 | 12.9 | 0.00 | 0.00 | 0.00 | 52 | 1004.7 |
| 20260507100533 | 21 | 45 | 4.8 | 8.0 | 0.00 | 0.00 | 0.00 | 51 | 1004.9 |
| 20260507095540 | 21 | 230 | 3.2 | 9.7 | 0.00 | 0.00 | 0.00 | 50 | 1005.0 |
| 20260507094547 | 21 | 243 | 4.8 | 8.0 | 0.00 | 0.00 | 0.00 | 51 | 1005.0 |
| 20260507093555 | 20 | 217 | 3.2 | 9.7 | 0.00 | 0.00 | 0.00 | 52 | 1005.1 |
| 20260507092603 | 19 | 118 | 3.2 | 8.0 | 0.00 | 0.00 | 0.00 | 52 | 1005.1 |
| 20260507091611 | 19 | 225 | 4.8 | 14.5 | 0.00 | 0.00 | 0.00 | 53 | 1005.3 |
| 20260507090619 | 18 | 256 | 1.6 | 4.8 | 0.00 | 0.00 | 0.00 | 54 | 1005.2 |
| 20260507085521 | 18 | 266 | 3.2 | 6.4 | 0.00 | 0.00 | 0.00 | 55 | 1005.3 |
| 20260507084529 | 18 | 204 | 1.6 | 6.4 | 0.00 | 0.00 | 0.00 | 58 | 1005.5 |
| 20260507083537 | 17 | 281 | 0.0 | 4.8 | 0.00 | 0.00 | 0.00 | 60 | 1005.5 |
| 20260507082545 | 17 | 182 | 3.2 | 6.4 | 0.00 | 0.00 | 0.00 | 60 | 1005.4 |
| 20260507081553 | 17 | 218 | 3.2 | 6.4 | 0.00 | 0.00 | 0.00 | 62 | 1005.3 |
| 20260507080601 | 16 | 202 | 3.2 | 4.8 | 0.00 | 0.00 | 0.00 | 65 | 1005.1 |
| 20260507075609 | 16 | 191 | 1.6 | 4.8 | 0.00 | 0.00 | 0.00 | 68 | 1005.2 |
| 20260507074617 | 16 | 202 | 0.0 | 4.8 | 0.00 | 0.00 | 0.00 | 69 | 1005.3 |
| 20260507073519 | 16 | 266 | 1.6 | 4.8 | 0.00 | 0.00 | 0.00 | 66 | 1005.2 |
| 20260507072527 | 16 | 225 | 1.6 | 4.8 | 0.00 | 0.00 | 0.00 | 66 | 1005.1 |
| 20260507071535 | 15 | 202 | 4.8 | 12.9 | 0.00 | 0.00 | 0.00 | 67 | 1005.0 |
| 20260507070543 | 15 | 207 | 1.6 | 6.4 | 0.00 | 0.00 | 0.00 | 73 | 1004.7 |
| 20260507065551 | 15 | 225 | 0.0 | 1.6 | 0.00 | 0.00 | 0.00 | 73 | 1004.8 |
| 20260507064559 | 15 | 270 | 0.0 | 1.6 | 0.00 | 0.00 | 0.00 | 75 | 1004.7 |
| 20260507063607 | 14 | 211 | 0.0 | 1.6 | 0.00 | 0.00 | 0.00 | 77 | 1004.7 |
| 20260507062615 | 13 | 227 | 1.6 | 4.8 | 0.00 | 0.00 | 0.00 | 79 | 1004.6 |
| 20260507061517 | 13 | 200 | 1.6 | 4.8 | 0.00 | 0.00 | 0.00 | 81 | 1004.7 |
| 20260507060525 | 13 | 0.0 | 0.0 | 0.00 | 0.00 | 0.00 | 81 | 1004.5 | |
| 20260507054541 | 12 | 0.0 | 0.0 | 0.00 | 0.00 | 0.00 | 81 | 1004.5 | |
| 20260507053549 | 12 | 180 | 0.0 | 1.6 | 0.00 | 0.00 | 0.00 | 81 | 1004.4 |
| 20260507052557 | 12 | 0.0 | 1.6 | 0.00 | 0.00 | 0.00 | 80 | 1004.3 | |
| 20260507051604 | 12 | 270 | 0.0 | 0.0 | 0.00 | 0.00 | 0.00 | 80 | 1004.2 |
| 20260507050612 | 12 | 225 | 3.2 | 4.8 | 0.00 | 0.00 | 0.00 | 80 | 1004.0 |
| 20260507045620 | 12 | 239 | 0.0 | 1.6 | 0.00 | 0.00 | 0.00 | 80 | 1004.1 |
| 20260507044522 | 12 | 241 | 1.6 | 3.2 | 0.00 | 0.00 | 0.00 | 80 | 1003.9 |
| 20260507043530 | 12 | 225 | 3.2 | 4.8 | 0.00 | 0.00 | 0.00 | 80 | 1003.8 |
| 20260507042538 | 12 | 245 | 3.2 | 8.0 | 0.00 | 0.00 | 0.00 | 80 | 1003.7 |
| 20260507041546 | 12 | 235 | 3.2 | 6.4 | 0.00 | 0.00 | 0.00 | 83 | 1003.6 |
| 20260507040554 | 12 | 0.0 | 0.0 | 0.00 | 0.00 | 0.00 | 83 | 1003.6 | |
| 20260507035602 | 11 | 199 | 3.2 | 4.8 | 0.00 | 0.00 | 0.00 | 82 | 1003.6 |
| 20260507034610 | 11 | 250 | 1.6 | 3.2 | 0.00 | 0.00 | 0.00 | 82 | 1003.7 |
| 20260507033618 | 11 | 275 | 1.6 | 3.2 | 0.00 | 0.00 | 0.00 | 82 | 1003.7 |
| 20260507032520 | 12 | 270 | 0.0 | 1.6 | 0.00 | 0.00 | 0.00 | 81 | 1003.6 |
| 20260507031528 | 12 | 229 | 1.6 | 3.2 | 0.00 | 0.00 | 0.00 | 79 | 1003.5 |
| 20260507030536 | 12 | 225 | 3.2 | 4.8 | 0.00 | 0.00 | 0.00 | 77 | 1003.5 |
| 20260507025544 | 12 | 212 | 1.6 | 4.8 | 0.00 | 0.00 | 0.00 | 76 | 1003.5 |
| 20260507024552 | 12 | 180 | 0.0 | 1.6 | 0.00 | 0.00 | 0.00 | 75 | 1003.5 |
| 20260507023600 | 12 | 203 | 1.6 | 3.2 | 0.00 | 0.00 | 0.00 | 74 | 1003.6 |
| 20260507022608 | 13 | 180 | 0.0 | 1.6 | 0.00 | 0.00 | 0.00 | 73 | 1003.5 |
| 20260507021616 | 13 | 225 | 0.0 | 1.6 | 0.00 | 0.00 | 0.00 | 72 | 1003.5 |
| 20260507020518 | 14 | 180 | 0.0 | 1.6 | 0.00 | 0.00 | 0.00 | 71 | 1003.5 |
| 20260507015526 | 14 | 0.0 | 0.0 | 0.00 | 0.00 | 0.00 | 70 | 1003.4 | |
| 20260507014534 | 15 | 0.0 | 0.0 | 0.00 | 0.00 | 0.00 | 66 | 1003.4 | |
| 20260507013541 | 15 | 218 | 1.6 | 8.0 | 0.00 | 0.00 | 0.00 | 64 | 1003.2 |
| 20260507012549 | 15 | 176 | 8.0 | 14.5 | 0.00 | 0.00 | 0.00 | 64 | 1003.1 |
| 20260507011558 | 15 | 185 | 8.0 | 11.3 | 0.00 | 0.00 | 0.00 | 64 | 1003.1 |
| 20260507010606 | 16 | 186 | 8.0 | 14.5 | 0.00 | 0.00 | 0.00 | 64 | 1003.1 |
| 20260507005613 | 16 | 180 | 6.4 | 11.3 | 0.00 | 0.00 | 0.00 | 63 | 1003.2 |
| 20260507004516 | 16 | 180 | 8.0 | 12.9 | 0.00 | 0.00 | 0.00 | 63 | 1003.2 |
| 20260507003524 | 16 | 194 | 6.4 | 16.1 | 0.00 | 0.00 | 0.00 | 63 | 1003.2 |
| 20260507002532 | 16 | 180 | 9.7 | 16.1 | 0.00 | 0.00 | 0.00 | 63 | 1003.2 |
| 20260507001540 | 16 | 175 | 8.0 | 14.5 | 0.00 | 0.00 | 0.00 | 63 | 1003.2 |
| 20260507000548 | 15 | 180 | 6.4 | 9.7 | 0.00 | 0.00 | 0.00 | 65 | 1003.4 |
| 20260506235556 | 16 | 180 | 8.0 | 14.5 | 0.00 | 0.00 | 0.00 | 64 | 1003.4 |
| 20260506234603 | 15 | 226 | 6.4 | 9.7 | 0.00 | 0.00 | 0.00 | 66 | 1003.4 |
| 20260506233611 | 15 | 183 | 9.7 | 14.5 | 0.00 | 0.00 | 0.00 | 69 | 1003.5 |
| 20260506232619 | 14 | 270 | 4.8 | 9.7 | 0.00 | 0.00 | 0.00 | 71 | 1003.4 |
| 20260506231521 | 13 | 245 | 1.6 | 4.8 | 0.00 | 0.00 | 0.00 | 73 | 1003.4 |
| 20260506230528 | 13 | 256 | 0.0 | 3.2 | 0.00 | 0.00 | 0.00 | 75 | 1003.4 |
| 20260506225536 | 14 | 247 | 0.0 | 0.0 | 0.00 | 0.00 | 0.00 | 74 | 1003.3 |
| 20260506224544 | 14 | 246 | 1.6 | 4.8 | 0.00 | 0.00 | 0.00 | 74 | 1003.2 |
| 20260506223552 | 15 | 226 | 1.6 | 4.8 | 0.00 | 0.00 | 0.00 | 74 | 1003.1 |
| 20260506222600 | 14 | 190 | 4.8 | 8.0 | 0.00 | 0.00 | 0.00 | 76 | 1003.0 |
| 20260506221608 | 14 | 236 | 1.6 | 4.8 | 0.00 | 0.00 | 0.00 | 75 | 1003.2 |
| 20260506220616 | 15 | 225 | 0.0 | 1.6 | 0.00 | 0.00 | 0.00 | 74 | 1003.1 |
| 20260506215518 | 15 | 220 | 1.6 | 4.8 | 0.00 | 0.00 | 0.00 | 74 | 1003.0 |
| 20260506214526 | 15 | 199 | 1.6 | 4.8 | 0.00 | 0.00 | 0.00 | 74 | 1003.1 |
| 20260506213534 | 15 | 0.0 | 0.0 | 0.00 | 0.00 | 0.00 | 73 | 1003.1 | |
| 20260506212542 | 15 | 214 | 0.0 | 1.6 | 0.00 | 0.00 | 0.00 | 72 | 1003.1 |
| 20260506211550 | 15 | 259 | 0.0 | 3.2 | 0.00 | 0.00 | 0.00 | 72 | 1003.0 |
| 20260506210557 | 15 | 194 | 1.6 | 3.2 | 0.00 | 0.00 | 0.00 | 72 | 1003.0 |
| 20260506205606 | 15 | 206 | 3.2 | 4.8 | 0.00 | 0.00 | 0.00 | 72 | 1002.8 |
| 20260506204613 | 15 | 190 | 3.2 | 8.0 | 0.00 | 0.00 | 0.00 | 72 | 1002.7 |
| 20260506203515 | 16 | 270 | 0.0 | 1.6 | 0.00 | 0.00 | 0.00 | 71 | 1002.8 |
| 20260506202523 | 16 | 270 | 0.0 | 3.2 | 0.00 | 0.00 | 0.00 | 71 | 1002.7 |
| 20260506201531 | 15 | 180 | 3.2 | 4.8 | 0.00 | 0.00 | 0.00 | 72 | 1002.7 |
| 20260506200538 | 15 | 270 | 0.0 | 1.6 | 0.00 | 0.00 | 0.00 | 73 | 1002.8 |
| 20260506195547 | 15 | 180 | 0.0 | 3.2 | 0.00 | 0.00 | 0.00 | 72 | 1002.6 |
| 20260506194554 | 15 | 251 | 0.0 | 3.2 | 0.00 | 0.00 | 0.00 | 72 | 1002.7 |
| 20260506193602 | 15 | 251 | 0.0 | 6.4 | 0.00 | 0.00 | 0.00 | 71 | 1002.6 |
| 20260506192610 | 15 | 324 | 0.0 | 1.6 | 0.00 | 0.00 | 0.00 | 70 | 1002.5 |
| 20260506191618 | 15 | 0.0 | 0.0 | 0.00 | 0.00 | 0.00 | 68 | 1002.3 | |
| 20260506190521 | 16 | 4 | 1.6 | 3.2 | 0.00 | 0.00 | 0.00 | 66 | 1002.0 |
| 20260506185529 | 16 | 0.0 | 0.0 | 0.00 | 0.00 | 0.00 | 63 | 1001.8 | |
| 20260506184537 | 17 | 242 | 0.0 | 1.6 | 0.00 | 0.00 | 0.00 | 61 | 1001.8 |
| 20260506183544 | 17 | 213 | 3.2 | 8.0 | 0.00 | 0.00 | 0.00 | 58 | 1001.8 |
| 20260506182552 | 17 | 198 | 6.4 | 14.5 | 0.00 | 0.00 | 0.00 | 57 | 1001.7 |
| 20260506181600 | 17 | 197 | 4.8 | 9.7 | 0.00 | 0.00 | 0.00 | 57 | 1001.7 |
| 20260506180607 | 17 | 180 | 9.7 | 12.9 | 0.00 | 0.00 | 0.00 | 56 | 1001.6 |
| 20260506175615 | 18 | 187 | 4.8 | 14.5 | 0.00 | 0.00 | 0.00 | 55 | 1001.5 |
| 20260506174517 | 18 | 180 | 11.3 | 19.3 | 0.00 | 0.00 | 0.00 | 55 | 1001.3 |
| 20260506173527 | 18 | 223 | 4.8 | 9.7 | 0.00 | 0.00 | 0.00 | 56 | 1001.3 |
| 20260506172533 | 18 | 193 | 11.3 | 17.7 | 0.00 | 0.00 | 0.00 | 56 | 1001.4 |
| 20260506171542 | 18 | 206 | 3.2 | 9.7 | 0.00 | 0.00 | 0.00 | 59 | 1001.3 |